Air Resources Laboratory banner image
Air Resources Laboratory web site National Oceanic and Atmospheric Administration (NOAA)

az roundup


Office: PSR

ASUS45 KPSR 161010
RWRAZ

ARIZONA HOURLY REGIONAL WEATHER ROUNDUP
NATIONAL WEATHER SERVICE PHOENIX AZ
300 AM MST TUE AUG 16 2022

NOTE: FAIR INDICATES FEW OR NO CLOUDS BELOW 12,000 FEET WITH NO
SIGNIFICANT WEATHER AND/OR OBSTRUCTIONS TO VISIBILITY.

AZZ001>003-036-161100-
NORTHWEST ARIZONA

CITY           SKY/WX    TMP DP  RH WIND       PRES   REMARKS
BULLHEAD CITY  CLEAR     91  57  31 NE8       29.75F
KINGMAN        CLEAR     71  62  73 E9        29.98S
$$

AZZ004>008-015-016-018-161100-
NORTH CENTRAL ARIZONA

CITY           SKY/WX    TMP DP  RH WIND       PRES   REMARKS
GRAND CANYON   MOCLDY    55  54  96 NE3       30.21S
WILLIAMS       CLEAR     57  55  94 SE7       30.21S
PRESCOTT       CLEAR     62  58  86 SW5       30.09S
FLAGSTAFF      CLEAR     54  53  97 CALM      30.24S
PAYSON         CLEAR     66  57  72 N5        30.10S
PAGE           CLOUDY    70  61  73 SW3       30.08S
$$

AZZ009>014-017-161100-
NORTHEAST ARIZONA

CITY           SKY/WX    TMP DP  RH WIND       PRES   REMARKS
WINSLOW        PTCLDY    65  62  90 CALM      30.11S
WINDOW ROCK    PTCLDY    58  55  90 CALM      30.24R
SHOW LOW       PTCLDY    59  57  94 CALM      30.20S FOG
$$

AZZ540-542>544-546-548-161100-
GREATER PHOENIX AREA

CITY           SKY/WX    TMP DP  RH WIND       PRES   REMARKS
PHOENIX        PTCLDY    88  67  49 SW3       29.76R
BUCKEYE        CLEAR     84  72  65 NW6       29.78S HAZE
LUKE AFB       CLEAR     86  67  52 NW3       29.76S
DEER VALLEY    CLEAR     84  66  54 NE5       29.80R
SCOTTSDALE     CLEAR     86  69  56 CALM      29.80S
MESA-FALCON    CLEAR     86  67  52 NE3       29.79R
MESA-GATEWAY   CLEAR     85  67  56 SE7       29.81R
$$

AZZ539-553-161100-
SOUTHWEST MARICOPA COUNTY AND PINAL COUNTY

CITY           SKY/WX    TMP DP  RH WIND       PRES   REMARKS
CASA GRANDE    CLEAR     84  67  56 SE5       29.82R
GILA BEND      FAIR      84  69  60 S7        29.76S
$$

AZZ503-504-507>509-161100-
SOUTHEAST ARIZONA

CITY           SKY/WX    TMP DP  RH WIND       PRES   REMARKS
TUCSON         MOCLDY    80  64  58 SE12      29.92S
DAVIS-MONTHAN  CLOUDY    77  64  63 SE7       29.89S
NOGALES        PTCLDY    66  64  93 CALM      30.00F
SIERRA VISTA   CLEAR     69  58  68 SW6       30.06F
SAFFORD        PTCLDY    72  63  73 CALM      29.93R
$$

AZZ532-161100-
SOUTHWEST ARIZONA

CITY           SKY/WX    TMP DP  RH WIND       PRES   REMARKS
YUMA           CLEAR     89  72  56 SE8       29.71S
$$

CAZ041-043-047-048-061-525>527-560>570-161100-
SOUTHERN CALIFORNIA

CITY           SKY/WX    TMP DP  RH WIND       PRES   REMARKS
DOWNTOWN L.A.  CLEAR     66  57  72 CALM      29.81F
L.A. AIRPORT   PTCLDY    67  60  78 CALM      29.82F
SAN DIEGO      PTCLDY    70  65  84 CALM      29.82F
BURBANK        CLEAR     73  55  53 CALM      29.83F
ONTARIO        PTCLDY    73  57  57 CALM      29.83F
RIVERSIDE      CLEAR     72  58  61 CALM      29.83F
PALM SPRINGS   CLEAR     90  50  25 S3        29.74S
EL CENTRO NAS  CLEAR     91  63  39 W7        29.69S
IMPERIAL       CLEAR     88  71  57 E3        29.68R
BLYTHE         CLEAR     91  70  49 SW7       29.72S
NEEDLES        CLEAR     91  61  36 W3        29.77F
$$

NVZ020-UTZ003-161100-
SOUTHERN NEVADA-UTAH

CITY           SKY/WX    TMP DP  RH WIND       PRES   REMARKS
LAS VEGAS      CLOUDY    82  58  43 CALM      29.88R
SALT LAKE CITY PTCLDY    75  49  39 S9        30.03S
$$

NMZ009-TXZ055-161100-
NEW MEXICO-WEST TEXAS

CITY           SKY/WX    TMP DP  RH WIND       PRES   REMARKS
ALBUQUERQUE    MOCLDY    72  55  55 NW6       30.15R
EL PASO        PTCLDY    75  55  49 E3        30.03R
$$


........................KEY........................
SKY/WX - SKY CONDITION/WEATHER
TMP    - TEMPERATURE IN FAHRENHEIT
DP     - DEW POINT IN FAHRENHEIT
RH     - RELATIVE HUMIDITY IN PERCENT
WIND   - DIRECTION AND SPEED IN MILES PER HOUR (MPH)
VRB    - VARIABLE WIND DIRECTION
PRES   - MEAN SEA LEVEL PRESSURE IN INCHES OF MERCURY
         F - FALLING PRESSURE   R - RISING PRESSURE
         S - STEADY PRESSURE
VSB    - VISIBILITY IN MILES
HX     - HEAT INDEX IN FAHRENHEIT
WCI    - WIND CHILL INDEX IN FAHRENHEIT
TC     - TEMPERATURE IN CELSIUS WHICH IS ALSO KNOWN AS
         TEMPERATURE IN CENTIGRADE
AFB    - AIR FORCE BASE
         LUKE AFB IS LUKE AIR FORCE BASE
         DAVIS-MONTHAN IS DAVIS-MONTHAN AIR FORCE BASE
NAS    - NAVAL AIR STATION
         EL CENTRO NAS IS EL CENTRO NAVAL AIR STATION
N/A    - NOT AVAILABLE